This is the latest recevied weather packets stored in our database for station/object KB4MOX. If no packets are shown the sender has not sent any weather packets the latest 10 day(s).
| Time | Temp. | Humidity | Pressure | Rain* | Wind** | Luminosity | Snow |
|---|---|---|---|---|---|---|---|
| 1777477930 | 23.33° C | 73% | 1014.5 hPa | 0 mm | - | 613 W/m² | - |
| 1777477625 | 23.33° C | 74% | 1014.6 hPa | 0 mm | - | 692 W/m² | - |
| 1777477322 | 22.78° C | 76% | 1014.8 hPa | 0 mm | - | 587 W/m² | - |
| 1777477019 | 22.78° C | 76% | 1014.9 hPa | 0 mm | - | 269 W/m² | - |
| 1777476716 | 22.78° C | 78% | 1014.7 hPa | 0 mm | - | 296 W/m² | - |
| 1777476412 | 22.78° C | 77% | 1014.7 hPa | 0 mm | - | 263 W/m² | - |
| 1777476110 | 22.78° C | 77% | 1014.5 hPa | 0 mm | - | 348 W/m² | - |
| 1777475805 | 22.22° C | 79% | 1014.3 hPa | 0 mm | - | 422 W/m² | - |
| 1777475502 | 22.22° C | 82% | 1014.2 hPa | 0 mm | - | 239 W/m² | - |
| 1777475198 | 21.67° C | 82% | 1014.3 hPa | 0 mm | - | 132 W/m² | - |
| 1777474893 | 21.67° C | 82% | 1014.4 hPa | 0 mm | - | 179 W/m² | - |
| 1777474589 | 21.67° C | 82% | 1014.5 hPa | 0 mm | - | 213 W/m² | - |
| 1777474286 | 21.67° C | 83% | 1014.2 hPa | 0 mm | - | 220 W/m² | - |
| 1777473983 | 21.67° C | 81% | 1014.3 hPa | 0 mm | - | 214 W/m² | - |
| 1777473681 | 21.11° C | 85% | 1014.3 hPa | 0 mm | - | 248 W/m² | - |
| 1777473377 | 20.56° C | 85% | 1014.4 hPa | 0 mm | - | 191 W/m² | - |
| 1777473073 | 20.56° C | 85% | 1014.4 hPa | 0 mm | - | 80 W/m² | - |
| 1777472770 | 20.56° C | 86% | 1014.6 hPa | 0 mm | - | 58 W/m² | - |
| 1777472466 | 20.56° C | 86% | 1014.5 hPa | 0 mm | - | 48 W/m² | - |
| 1777472164 | 20° C | 89% | 1014.3 hPa | 0 mm | - | 52 W/m² | - |
| 1777471864 | 20° C | 89% | 1014.3 hPa | 0 mm | - | 46 W/m² | - |
| 1777471561 | 20° C | 89% | 1014.4 hPa | 0 mm | - | 63 W/m² | - |
| 1777471257 | 20° C | 92% | 1014.1 hPa | 0 mm | - | 110 W/m² | - |
| 1777470954 | 19.44° C | 92% | 1014.2 hPa | 0 mm | - | 53 W/m² | - |
| 1777470651 | 18.89° C | 94% | 1014.3 hPa | 0 mm | - | 45 W/m² | - |
* Rain latest hour (hover to see other rain measurements)
** Current wind speed in m/s (hover to see current wind gust speed)